Location: Del Amo
(33.8464°N, 118.2104°W)
Time: 03:56:30
(UTC+00:00)

Vanguard 2 Rocket - Pass Details

Date: 17 September 2024
Orbit: 553 x 3299 km, 32.9° (Epoch: 05 October)

Event Time Altitude Azimuth Distance (km) Brightness Sun altitude
Rises 06:43:31 0° 211° (SSW) 3,430 - -51.1°
Reaches altitude 10° 06:45:54 10° 200° (SSW) 2,745 - -51.3°
Maximum altitude 06:51:46 31° 140° (SE) 2,191 - -51.8°
Drops below altitude 10° 07:01:04 10° 84° (E) 4,444 - -52.5°
Exits shadow 07:04:03 - 79° (ENE) 5,336 10.8 -52.7°
Sets 07:06:07 0° 76° (ENE) 5,944 11.0 -52.8°
